Location: U-46 Planetarium
(42.0300°N, 88.2740°W)
Time: 22:09:55
(UTC-05:00)

Daily predictions for brighter satellites

Satellite Brightness Start Highest point End
(mag) Time Altitude Azimuth Time Altitude Azimuth Time Altitude Azimuth
Resurs 01 Rocket 1.8 19:49:35 10° SSE 19:54:00 85° WSW 19:58:29 10° NNW
Cosmos 1536 4.4 19:54:38 10° SSW 19:58:25 41° WNW 20:02:16 10° N
Cosmos 1570 Rocket 4.3 19:53:18 10° SSW 19:58:36 79° WNW 20:03:53 10° NNE
METEOR-M 4.3 19:54:07 10° S 19:59:28 80° WSW 20:04:52 10° NNW
Cosmos 1697 Rocket 3.3 19:57:23 10° SSE 20:02:26 35° ESE 20:07:30 10° NE
Meteor 2-16 Rocket 4.5 19:57:54 10° S 20:03:58 87° E 20:10:06 10° N
Helios 1A 3.5 20:00:15 10° S 20:04:23 64° WSW 20:08:34 10° NNW
Cosmos 1461 3.9 20:05:31 10° NW 20:09:22 43° WSW 20:13:06 10° S
ERS-1 Rocket 4.1 20:08:58 10° ESE 20:13:06 26° ENE 20:17:15 10° N
Cosmos 2278 4.1 20:09:16 10° SSW 20:14:55 70° WNW 20:20:38 10° NNE
RESURS DK-1 3.2 20:11:42 10° N 20:15:29 33° ENE 20:18:51 12° ESE
Cosmos 2150 Rocket 4.2 20:13:30 10° N 20:18:32 51° ENE 20:23:33 10° SE
OTV 4 3.0 20:19:17 10° SW 20:20:33 12° SSW 20:21:50 10° S
CZ-4 DEB 4.2 20:19:00 14° ESE 20:20:48 21° ENE 20:23:15 10° NNE
OAO 2 Rocket 4.1 20:19:53 10° WSW 20:24:29 37° S 20:28:13 15° ESE
Cosmos 1763 Rocket 4.5 20:20:29 10° SSE 20:24:29 24° E 20:28:29 10° NE
USA 186 1.4 20:23:25 10° SSE 20:26:25 66° ENE 20:29:13 10° N
Cosmos 1980 Rocket 2.8 20:21:26 10° SSE 20:26:26 34° ESE 20:31:30 10° NE
ALOS 2.3 20:22:03 10° SSE 20:26:44 84° WSW 20:31:27 10° NNW
Cosmos 2369 4.4 20:24:18 10° SW 20:29:52 59° WNW 20:35:32 10° NNE
H-2A R/B 2.8 20:26:05 10° SSE 20:29:58 89° ENE 20:33:57 10° NNW
Cosmos 2173 Rocket 4.5 20:25:55 10° SSE 20:31:46 40° E 20:37:36 10° NNE
Cosmos 1898 Rocket 3.5 20:26:28 10° NNW 20:31:47 71° ENE 20:37:00 10° SSE
Cosmos 1605 Rocket 4.3 20:31:39 10° SSW 20:37:57 73° W 20:44:13 10° N
Cosmos 2084 3.6 20:34:47 10° NW 20:38:51 69° SW 20:42:28 14° SSE
H-2A R/B 3.4 20:37:53 18° E 20:39:21 21° ENE 20:42:30 10° NNE
FENGYUN 3A 3.9 20:34:38 10° S 20:39:57 70° WSW 20:45:19 10° NNW
DELTA 2 R/B (1) 4.3 20:34:44 10° W 20:39:57 42° SSW 20:43:49 17° SE
Cosmos 1626 Rocket 3.8 20:37:12 10° NNW 20:41:35 71° W 20:45:54 10° S
Cosmos 1656 3.8 20:36:06 10° SSW 20:41:44 82° WNW 20:47:19 10° NNE
Cosmos 468 Rocket 3.8 20:38:24 10° SSW 20:43:30 76° ESE 20:48:38 10° NNE
EO 1 Delta rocket 4.3 20:39:17 10° N 20:44:02 74° W 20:49:36 10° SSW
Cosmos 1666 4.4 20:45:23 17° ENE 20:45:23 17° ENE 20:47:19 10° NE
CZ-3C R/B 4.4 19:56:44 10° W 20:46:53 31° SSW 20:55:42 11° SSE
Cosmos 1975 3.4 20:42:58 10° SSW 20:47:02 62° W 20:51:07 10° N
Cosmos 2100 Rocket 4.0 20:42:29 10° S 20:48:38 60° E 20:54:44 10° NNE
Cosmos 841 Rocket 4.0 20:44:00 10° SSE 20:48:43 35° ESE 20:53:26 10° NE
Tiangong 1 1.1 20:46:04 10° W 20:49:10 66° SSW 20:50:14 36° SE
Cosmos 2263 Rocket 4.0 20:47:20 10° N 20:50:32 15° NE 20:52:51 12° ENE
Lacrosse 5 rocket 3.3 20:48:24 10° WNW 20:51:05 19° WSW 20:53:43 10° S
YAOGAN 11 4.2 20:48:04 17° SSE 20:51:29 64° ENE 20:55:53 10° N
Cosmos 1602 Rocket 4.3 20:47:27 10° NNW 20:51:48 54° W 20:56:06 10° S
YAOGAN 6 4.4 20:53:36 17° ENE 20:53:37 17° ENE 20:56:08 10° NNE
Cosmos 1758 Rocket 4.4 20:50:34 10° NNE 20:54:27 31° ENE 20:55:32 27° ESE
Cosmos 1500 3.3 20:52:00 10° SSW 20:55:45 76° W 20:59:33 10° N
Cosmos 1814 Rocket 4.0 20:50:58 10° SSW 20:56:18 83° ESE 21:01:37 10° NNE
Cosmos 2227 Rocket 4.0 20:51:30 10° NW 20:56:22 30° WSW 21:01:12 10° SSW
ASTEX 1 4.3 20:53:29 10° NNE 20:57:51 29° E 20:58:58 27° ESE
Cosmos 2322 Rocket 3.2 21:00:47 25° E 21:00:47 25° E 21:05:07 10° NE
Cosmos 2061 Rocket 3.9 20:55:44 10° S 21:01:58 69° E 21:08:11 10° NNE
Cosmos 1340 2.8 20:59:07 10° N 21:02:51 52° ENE 21:03:55 38° SE
deb Chang Zheng 4 4.1 21:00:38 10° NNE 21:04:46 36° E 21:05:36 33° ESE
Cosmos 2297 Rocket 3.8 21:06:20 10° NW 21:11:17 32° WSW 21:16:12 10° SSW
Cosmos 1459 Rocket 3.9 21:08:47 10° S 21:14:51 89° E 21:21:00 10° N
Cosmos 2360 4.1 21:11:49 10° S 21:17:27 63° ESE 21:23:07 10° NNE
Meteor 1-21 4.2 21:13:02 10° N 21:18:52 78° E 21:22:11 27° SSE
Cosmos 1725 Rocket 4.2 21:18:11 30° SE 21:20:50 47° E 21:26:47 10° NNE
Cosmos 2227 4.1 21:16:38 10° NNW 21:22:26 81° ENE 21:24:53 36° SSE
Cosmos 2058 Rocket 3.2 21:22:25 48° ESE 21:23:00 51° E 21:27:23 10° NNE
Cosmos 1606 Rocket 3.4 21:22:36 25° S 21:25:11 87° E 21:29:39 10° N
Cosmos 1939 Rocket 3.1 21:24:09 34° S 21:25:51 73° W 21:30:02 10° NNW
Envisat 3.0 21:26:38 30° S 21:29:15 81° WSW 21:34:22 10° NNW
Lacrosse 5 2.7 21:26:18 10° WNW 21:31:04 41° SW 21:32:59 29° S
Cosmos 1937 Rocket 4.3 21:26:38 10° NNW 21:31:42 48° WSW 21:35:08 20° S
BREEZE-M DEB (TANK) 4.2 21:30:34 10° WNW 21:34:35 78° NNE 21:39:46 31° ESE
BREEZE-M DEB (TANK) 2.0 21:33:00 10° WNW 21:35:24 80° NNE 21:35:26 79° NE
Cosmos 1743 3.9 21:34:26 11° SSW 21:38:02 43° WNW 21:41:48 10° N
SPOT 5 2.8 21:38:12 54° SSE 21:39:18 80° ENE 21:44:05 10° N
Cosmos 2233 Rocket 4.3 21:43:02 43° E 21:43:23 44° E 21:49:15 10° NNE
Cosmos 1697 Rocket 4.3 21:41:14 10° WSW 21:46:22 35° WNW 21:51:31 10° N
Cosmos 1726 Rocket 3.9 21:46:06 34° SSW 21:47:51 62° W 21:52:14 10° N
ERS-1 Rocket 4.2 21:48:35 19° SSW 21:51:42 37° W 21:56:22 10° NNW
RESURS DK-1 4.4 21:50:11 10° NW 21:53:20 21° WSW 21:54:48 18° SW
H-2A R/B 3.1 21:56:29 30° NE 21:56:29 30° NE 22:00:02 10° N
ARGOS 3.1 21:57:44 64° E 21:57:58 64° ENE 22:03:20 10° N
Terra 3.4 21:59:15 24° NE 21:59:15 24° NE 22:02:06 10° N
SL-16 R/B 2.0 21:57:52 68° SE 21:58:15 70° ESE 22:03:55 10° NNE
NOAA 11 4.1 21:58:50 65° E 21:59:11 68° ENE 22:04:37 10° N
MetOp-B 4.3 22:07:20 55° SSW 22:08:16 66° WSW 22:13:37 10° NNW
Cosmos 1980 Rocket 3.6 22:05:09 10° SW 22:10:21 37° WNW 22:15:38 10° N
Cosmos 2360 Rocket 4.1 22:14:22 17° NE 22:14:22 17° NE 22:15:50 10° NE
SPOT 1/Viking Rocket 3.5 22:15:02 83° W 22:15:02 83° W 22:20:15 10° NNW
H-2A R/B 3.4 22:15:02 32° WSW 22:15:10 32° W 22:18:56 10° NNW
Cosmos 2228 3.9 22:20:01 47° NW 22:20:01 47° NW 22:23:31 10° N
Cosmos 1125 Rocket 3.8 22:14:56 10° NNW 22:20:04 59° WSW 22:20:07 59° WSW
USA 215 3.8 22:21:34 42° ENE 22:23:06 49° NNE 22:29:22 10° NW
SL-19 R/B 4.2 22:19:22 10° N 22:24:47 74° WNW 22:24:57 73° W
BREEZE-M DEB (TANK) 3.3 22:17:55 10° W 22:27:32 67° NNW 22:27:44 66° N
BREEZE-M DEB (TANK) 3.6 22:13:53 10° WNW 22:31:12 85° NNE 22:31:51 74° E
Cosmos 2263 Rocket 2.3 22:29:42 10° NNW 22:34:32 68° NNW 22:34:32 68° NNW
Cosmos 540 Rocket 4.1 22:39:10 54° NNW 22:39:10 54° NNW 22:43:32 10° NNE
Cosmos 2346 Rocket 4.5 22:37:33 10° N 22:43:35 76° WNW 22:43:35 76° WNW
Cosmos 2322 Rocket 3.0 22:42:28 34° WSW 22:44:23 47° WNW 22:49:49 10° NNE
Meteor 2-5 Rocket 4.1 22:45:11 10° NNW 22:50:21 65° NW 22:50:21 65° NW
Meteor 1-24 Rocket 4.4 22:56:04 10° N 23:00:45 55° N 23:00:45 55° N
ATLAS CENTAUR R/B 4.2 23:16:15 66° ESE 23:16:15 66° ESE 23:36:48 10° NE
Cosmos 2278 Rocket 4.0 23:22:36 10° N 23:25:52 24° NNE 23:25:52 24° NNE
H-2A R/B 4.0 23:37:08 22° WNW 23:37:08 22° WNW 23:39:27 10° NW
Terra 4.0 23:38:09 21° NW 23:38:09 21° NW 23:40:06 10° NNW
SL-16 R/B 4.5 23:39:37 13° W 23:42:56 20° NW 23:47:03 10° N
Cosmos 1844 Rocket 4.2 23:41:12 10° NNW 23:44:10 32° NNW 23:44:10 32° NNW
Cosmos 2360 Rocket 3.8 23:56:06 31° NNW 23:56:06 31° NNW 23:59:54 10° N
